Year,Month,Day,Hour,Minute,Value (Times are PST for temperature in C)
2008,06,27,00,00,11.70
2008,06,27,00,01,11.70
2008,06,27,00,02,11.60
2008,06,27,00,03,11.60
2008,06,27,00,04,11.60
2008,06,27,00,05,11.60
2008,06,27,00,06,11.60
2008,06,27,00,07,11.60
2008,06,27,00,08,11.60
2008,06,27,00,09,11.60
2008,06,27,00,10,11.60
2008,06,27,00,11,11.60
2008,06,27,00,12,11.60
2008,06,27,00,13,11.40
2008,06,27,00,14,11.40
2008,06,27,00,15,11.40
2008,06,27,00,16,11.40
2008,06,27,00,17,11.40
2008,06,27,00,18,11.40
2008,06,27,00,19,11.40
2008,06,27,00,20,11.40
2008,06,27,00,21,11.40
2008,06,27,00,22,11.40
2008,06,27,00,23,11.40
2008,06,27,00,24,11.40
2008,06,27,00,25,11.40
2008,06,27,00,26,11.40
2008,06,27,00,27,11.40
2008,06,27,00,28,11.40
2008,06,27,00,29,11.30
2008,06,27,00,30,11.30
2008,06,27,00,31,11.30
2008,06,27,00,32,11.30
2008,06,27,00,33,11.30
2008,06,27,00,34,11.30
2008,06,27,00,35,11.30
2008,06,27,00,36,11.30
2008,06,27,00,37,11.30
2008,06,27,00,38,11.30
2008,06,27,00,39,11.30
2008,06,27,00,40,11.30
2008,06,27,00,41,11.30
2008,06,27,00,42,11.30
2008,06,27,00,43,11.30
2008,06,27,00,44,11.30
2008,06,27,00,45,11.30
2008,06,27,00,46,11.30
2008,06,27,00,47,11.30
2008,06,27,00,48,11.30
2008,06,27,00,49,11.30
2008,06,27,00,50,11.20
2008,06,27,00,51,11.20
2008,06,27,00,52,11.20
2008,06,27,00,53,11.20
2008,06,27,00,54,11.10
2008,06,27,00,55,11.10
2008,06,27,00,56,11.10
2008,06,27,00,57,11.10
2008,06,27,00,58,11.10
2008,06,27,00,59,11.10
2008,06,27,01,00,11.10
2008,06,27,01,01,11.10
2008,06,27,01,02,11.10
2008,06,27,01,03,11.10
2008,06,27,01,04,11.00
2008,06,27,01,05,10.90
2008,06,27,01,06,10.90
2008,06,27,01,07,10.90
2008,06,27,01,08,10.90
2008,06,27,01,09,10.90
2008,06,27,01,10,10.90
2008,06,27,01,11,10.90
2008,06,27,01,12,10.90
2008,06,27,01,13,10.90
2008,06,27,01,14,10.90
2008,06,27,01,15,10.90
2008,06,27,01,16,10.90
2008,06,27,01,17,10.90
2008,06,27,01,18,10.90
2008,06,27,01,19,10.90
2008,06,27,01,20,10.90
2008,06,27,01,21,10.90
2008,06,27,01,22,10.90
2008,06,27,01,23,10.90
2008,06,27,01,24,10.90
2008,06,27,01,25,10.90
2008,06,27,01,26,10.90
2008,06,27,01,27,10.90
2008,06,27,01,28,10.90
2008,06,27,01,29,10.90
2008,06,27,01,30,10.90
2008,06,27,01,31,10.90
2008,06,27,01,32,10.90
2008,06,27,01,33,10.90
2008,06,27,01,34,11.00
2008,06,27,01,35,11.10
2008,06,27,01,36,11.10
2008,06,27,01,37,11.10
2008,06,27,01,38,11.10
2008,06,27,01,39,11.10
2008,06,27,01,40,11.10
2008,06,27,01,41,11.10
2008,06,27,01,42,11.10
2008,06,27,01,43,11.10
2008,06,27,01,44,11.10
2008,06,27,01,45,11.10
2008,06,27,01,46,11.10
2008,06,27,01,47,11.10
2008,06,27,01,48,11.10
2008,06,27,01,49,11.00
2008,06,27,01,50,10.90
2008,06,27,01,51,10.90
2008,06,27,01,52,10.90
2008,06,27,01,53,10.90
2008,06,27,01,54,10.80
2008,06,27,01,55,10.80
2008,06,27,01,56,10.80
2008,06,27,01,57,10.70
2008,06,27,01,58,10.70
2008,06,27,01,59,10.70
2008,06,27,02,00,10.70
2008,06,27,02,01,10.70
2008,06,27,02,02,10.60
2008,06,27,02,03,10.60
2008,06,27,02,04,10.60
2008,06,27,02,05,10.60
2008,06,27,02,06,10.60
2008,06,27,02,07,10.60
2008,06,27,02,08,10.60
2008,06,27,02,09,10.60
2008,06,27,02,10,10.70
2008,06,27,02,11,10.70
2008,06,27,02,12,10.70
2008,06,27,02,13,10.70
2008,06,27,02,14,10.60
2008,06,27,02,15,10.60
2008,06,27,02,16,10.60
2008,06,27,02,17,10.70
2008,06,27,02,18,10.70
2008,06,27,02,19,10.80
2008,06,27,02,20,10.90
2008,06,27,02,21,10.90
2008,06,27,02,22,10.80
2008,06,27,02,23,10.80
2008,06,27,02,24,10.80
2008,06,27,02,25,10.80
2008,06,27,02,26,10.80
2008,06,27,02,27,10.70
2008,06,27,02,28,10.70
2008,06,27,02,29,10.70
2008,06,27,02,30,10.60
2008,06,27,02,31,10.70
2008,06,27,02,32,10.70
2008,06,27,02,33,10.70
2008,06,27,02,34,10.60
2008,06,27,02,35,10.60
2008,06,27,02,36,10.60
2008,06,27,02,37,10.60
2008,06,27,02,38,10.70
2008,06,27,02,39,10.70
2008,06,27,02,40,10.70
2008,06,27,02,41,10.60
2008,06,27,02,42,10.60
2008,06,27,02,43,10.60
2008,06,27,02,44,10.60
2008,06,27,02,45,10.40
2008,06,27,02,46,10.40
2008,06,27,02,47,10.40
2008,06,27,02,48,10.40
2008,06,27,02,49,10.40
2008,06,27,02,50,10.30
2008,06,27,02,51,10.30
2008,06,27,02,52,10.30
2008,06,27,02,53,10.20
2008,06,27,02,54,10.20
2008,06,27,02,55,10.20
2008,06,27,02,56,10.20
2008,06,27,02,57,10.30
2008,06,27,02,58,10.30
2008,06,27,02,59,10.30
2008,06,27,03,00,10.30
2008,06,27,03,01,10.30
2008,06,27,03,02,10.30
2008,06,27,03,03,10.30
2008,06,27,03,04,10.30
2008,06,27,03,05,10.30
2008,06,27,03,06,10.30
2008,06,27,03,07,10.30
2008,06,27,03,08,10.30
2008,06,27,03,09,10.20
2008,06,27,03,10,10.20
2008,06,27,03,11,10.10
2008,06,27,03,12,10.10
2008,06,27,03,13,10.10
2008,06,27,03,14,10.10
2008,06,27,03,15,10.10
2008,06,27,03,16,10.10
2008,06,27,03,17,10.10
2008,06,27,03,18,10.20
2008,06,27,03,19,10.20
2008,06,27,03,20,10.20
2008,06,27,03,21,10.30
2008,06,27,03,22,10.20
2008,06,27,03,23,10.20
2008,06,27,03,24,10.20
2008,06,27,03,25,10.20
2008,06,27,03,26,10.20
2008,06,27,03,27,10.20
2008,06,27,03,28,10.20
2008,06,27,03,29,10.10
2008,06,27,03,30,10.20
2008,06,27,03,31,10.20
2008,06,27,03,32,10.20
2008,06,27,03,33,10.20
2008,06,27,03,34,10.30
2008,06,27,03,35,10.30
2008,06,27,03,36,10.30
2008,06,27,03,37,10.30
2008,06,27,03,38,10.30
2008,06,27,03,39,10.30
2008,06,27,03,40,10.30
2008,06,27,03,41,10.30
2008,06,27,03,42,10.30
2008,06,27,03,43,10.20
2008,06,27,03,44,10.20
2008,06,27,03,45,10.20
2008,06,27,03,46,10.10
2008,06,27,03,47,10.10
2008,06,27,03,48,10.10
2008,06,27,03,49,10.10
2008,06,27,03,50,10.10
2008,06,27,03,51,10.10
2008,06,27,03,52,10.10
2008,06,27,03,53,10.10
2008,06,27,03,54,10.10
2008,06,27,03,55,10.10
2008,06,27,03,56,10.10
2008,06,27,03,57,10.10
2008,06,27,03,58,10.10
2008,06,27,03,59,10.10
2008,06,27,04,00,10.10
2008,06,27,04,01,10.10
2008,06,27,04,02,10.10
2008,06,27,04,03,10.10
2008,06,27,04,04,10.10
2008,06,27,04,05,10.10
2008,06,27,04,06,10.10
2008,06,27,04,07,10.10
2008,06,27,04,08,10.10
2008,06,27,04,09,10.10
2008,06,27,04,10,10.10
2008,06,27,04,11,10.10
2008,06,27,04,12,10.10
2008,06,27,04,13,10.10
2008,06,27,04,14,10.10
2008,06,27,04,15,10.10
2008,06,27,04,16,9.90
2008,06,27,04,17,9.90
2008,06,27,04,18,9.90
2008,06,27,04,19,9.90
2008,06,27,04,20,9.90
2008,06,27,04,21,9.90
2008,06,27,04,22,9.90
2008,06,27,04,23,9.90
2008,06,27,04,24,9.90
2008,06,27,04,25,9.90
2008,06,27,04,26,9.80
2008,06,27,04,27,9.80
2008,06,27,04,28,9.80
2008,06,27,04,29,9.80
2008,06,27,04,30,9.80
2008,06,27,04,31,9.70
2008,06,27,04,32,9.70
2008,06,27,04,33,9.70
2008,06,27,04,34,9.70
2008,06,27,04,35,9.70
2008,06,27,04,36,9.70
2008,06,27,04,37,9.70
2008,06,27,04,38,9.70
2008,06,27,04,39,9.70
2008,06,27,04,40,9.70
2008,06,27,04,41,9.70
2008,06,27,04,42,9.70
2008,06,27,04,43,9.80
2008,06,27,04,44,9.80
2008,06,27,04,45,9.70
2008,06,27,04,46,9.70
2008,06,27,04,47,9.70
2008,06,27,04,48,9.80
2008,06,27,04,49,9.80
2008,06,27,04,50,9.80
2008,06,27,04,51,9.80
2008,06,27,04,52,9.80
2008,06,27,04,53,9.80
2008,06,27,04,54,9.80
2008,06,27,04,55,9.90
2008,06,27,04,56,9.90
2008,06,27,04,57,9.90
2008,06,27,04,58,9.90
2008,06,27,04,59,9.90
2008,06,27,05,00,9.90
2008,06,27,05,01,9.90
2008,06,27,05,02,9.90
2008,06,27,05,03,9.90
2008,06,27,05,04,9.90
2008,06,27,05,05,9.90
2008,06,27,05,06,9.90
2008,06,27,05,07,9.90
2008,06,27,05,08,9.90
2008,06,27,05,09,9.90
2008,06,27,05,10,9.90
2008,06,27,05,11,9.90
2008,06,27,05,12,9.90
2008,06,27,05,13,9.80
2008,06,27,05,14,9.80
2008,06,27,05,15,9.80
2008,06,27,05,16,9.80
2008,06,27,05,17,9.80
2008,06,27,05,18,9.80
2008,06,27,05,19,9.80
2008,06,27,05,20,9.70
2008,06,27,05,21,9.70
2008,06,27,05,22,9.70
2008,06,27,05,23,9.70
2008,06,27,05,24,9.70
2008,06,27,05,25,9.70
2008,06,27,05,26,9.60
2008,06,27,05,27,9.60
2008,06,27,05,28,9.50
2008,06,27,05,29,9.50
2008,06,27,05,30,9.50
2008,06,27,05,31,9.50
2008,06,27,05,32,9.50
2008,06,27,05,33,9.50
2008,06,27,05,34,9.50
2008,06,27,05,35,9.60
2008,06,27,05,36,9.60
2008,06,27,05,37,9.70
2008,06,27,05,38,9.70
2008,06,27,05,39,9.70
2008,06,27,05,40,9.70
2008,06,27,05,41,9.70
2008,06,27,05,42,9.70
2008,06,27,05,43,9.70
2008,06,27,05,44,9.70
2008,06,27,05,45,9.70
2008,06,27,05,46,9.70
2008,06,27,05,47,9.70
2008,06,27,05,48,9.70
2008,06,27,05,49,9.70
2008,06,27,05,50,9.70
2008,06,27,05,51,9.70
2008,06,27,05,52,9.70
2008,06,27,05,53,9.70
2008,06,27,05,54,9.80
2008,06,27,05,55,9.80
2008,06,27,05,56,9.80
2008,06,27,05,57,9.80
2008,06,27,05,58,9.80
2008,06,27,05,59,9.80
2008,06,27,06,00,9.80
2008,06,27,06,01,9.80
2008,06,27,06,02,9.80
2008,06,27,06,03,9.90
2008,06,27,06,04,9.90
2008,06,27,06,05,9.90
2008,06,27,06,06,9.90
2008,06,27,06,07,9.90
2008,06,27,06,08,9.90
2008,06,27,06,09,9.90
2008,06,27,06,10,9.90
2008,06,27,06,11,9.90
2008,06,27,06,12,9.90
2008,06,27,06,13,10.00
2008,06,27,06,14,10.10
2008,06,27,06,15,10.10
2008,06,27,06,16,10.10
2008,06,27,06,17,10.10
2008,06,27,06,18,10.20
2008,06,27,06,19,10.30
2008,06,27,06,20,10.30
2008,06,27,06,21,10.30
2008,06,27,06,22,10.40
2008,06,27,06,23,10.40
2008,06,27,06,24,10.40
2008,06,27,06,25,10.40
2008,06,27,06,26,10.40
2008,06,27,06,27,10.50
2008,06,27,06,28,10.60
2008,06,27,06,29,10.60
2008,06,27,06,30,10.60
2008,06,27,06,31,10.70
2008,06,27,06,32,10.90
2008,06,27,06,33,10.90
2008,06,27,06,34,11.00
2008,06,27,06,35,11.10
2008,06,27,06,36,11.10
2008,06,27,06,37,11.10
2008,06,27,06,38,11.20
2008,06,27,06,39,11.20
2008,06,27,06,40,11.30
2008,06,27,06,41,11.40
2008,06,27,06,42,11.40
2008,06,27,06,43,11.50
2008,06,27,06,44,11.60
2008,06,27,06,45,11.60
2008,06,27,06,46,11.70
2008,06,27,06,47,11.70
2008,06,27,06,48,11.80
2008,06,27,06,49,11.80
2008,06,27,06,50,11.90
2008,06,27,06,51,11.90
2008,06,27,06,52,11.90
2008,06,27,06,53,11.90
2008,06,27,06,54,11.90
2008,06,27,06,55,11.90
2008,06,27,06,56,11.90
2008,06,27,06,57,11.90
2008,06,27,06,58,12.00
2008,06,27,06,59,12.00
2008,06,27,07,00,12.10
2008,06,27,07,01,12.10
2008,06,27,07,02,12.20
2008,06,27,07,03,12.20
2008,06,27,07,04,12.30
2008,06,27,07,05,12.30
2008,06,27,07,06,12.40
2008,06,27,07,07,12.50
2008,06,27,07,08,12.60
2008,06,27,07,09,12.70
2008,06,27,07,10,12.80
2008,06,27,07,11,12.90
2008,06,27,07,12,13.00
2008,06,27,07,13,13.10
2008,06,27,07,14,13.10
2008,06,27,07,15,13.20
2008,06,27,07,16,13.30
2008,06,27,07,17,13.30
2008,06,27,07,18,13.40
2008,06,27,07,19,13.50
2008,06,27,07,20,13.50
2008,06,27,07,21,13.60
2008,06,27,07,22,13.70
2008,06,27,07,23,13.70
2008,06,27,07,24,13.70
2008,06,27,07,25,13.80
2008,06,27,07,26,13.80
2008,06,27,07,27,13.90
2008,06,27,07,28,13.90
2008,06,27,07,29,13.90
2008,06,27,07,30,14.00
2008,06,27,07,31,14.20
2008,06,27,07,32,14.20
2008,06,27,07,33,14.30
2008,06,27,07,34,14.30
2008,06,27,07,35,14.40
2008,06,27,07,36,14.40
2008,06,27,07,37,14.30
2008,06,27,07,38,14.30
2008,06,27,07,39,14.30
2008,06,27,07,40,14.30
2008,06,27,07,41,14.30
2008,06,27,07,42,14.30
2008,06,27,07,43,14.30
2008,06,27,07,44,14.30
2008,06,27,07,45,14.40
2008,06,27,07,46,14.40
2008,06,27,07,47,14.50
2008,06,27,07,48,14.50
2008,06,27,07,49,14.60
2008,06,27,07,50,14.70
2008,06,27,07,51,14.80
2008,06,27,07,52,14.90
2008,06,27,07,53,14.90
2008,06,27,07,54,15.00
2008,06,27,07,55,15.10
2008,06,27,07,56,15.10
2008,06,27,07,57,15.10
2008,06,27,07,58,15.10
2008,06,27,07,59,15.10
2008,06,27,08,00,15.10
2008,06,27,08,01,15.10
2008,06,27,08,02,15.20
2008,06,27,08,03,15.30
2008,06,27,08,04,15.30
2008,06,27,08,05,15.30
2008,06,27,08,06,15.30
2008,06,27,08,07,15.30
2008,06,27,08,08,15.30
2008,06,27,08,09,15.30
2008,06,27,08,10,15.30
2008,06,27,08,11,15.30
2008,06,27,08,12,15.20
2008,06,27,08,13,15.20
2008,06,27,08,14,15.20
2008,06,27,08,15,15.20
2008,06,27,08,16,15.20
2008,06,27,08,17,15.20
2008,06,27,08,18,15.20
2008,06,27,08,19,15.20
2008,06,27,08,20,15.30
2008,06,27,08,21,15.30
2008,06,27,08,22,15.30
2008,06,27,08,23,15.30
2008,06,27,08,24,15.30
2008,06,27,08,25,15.30
2008,06,27,08,26,15.30
2008,06,27,08,27,15.40
2008,06,27,08,28,15.40
2008,06,27,08,29,15.40
2008,06,27,08,30,15.50
2008,06,27,08,31,15.50
2008,06,27,08,32,15.60
2008,06,27,08,33,15.60
2008,06,27,08,34,15.70
2008,06,27,08,35,15.80
2008,06,27,08,36,15.90
2008,06,27,08,37,16.00
2008,06,27,08,38,16.10
2008,06,27,08,39,16.10
2008,06,27,08,40,16.10
2008,06,27,08,41,16.20
2008,06,27,08,42,16.20
2008,06,27,08,43,16.30
2008,06,27,08,44,16.30
2008,06,27,08,45,16.30
2008,06,27,08,46,16.20
2008,06,27,08,47,16.10
2008,06,27,08,48,16.10
2008,06,27,08,49,16.10
2008,06,27,08,50,16.10
2008,06,27,08,51,16.10
2008,06,27,08,52,16.10
2008,06,27,08,53,16.20
2008,06,27,08,54,16.20
2008,06,27,08,55,16.20
2008,06,27,08,56,16.30
2008,06,27,08,57,16.40
2008,06,27,08,58,16.60
2008,06,27,08,59,16.60
2008,06,27,09,00,16.70
2008,06,27,09,01,16.70
2008,06,27,09,02,16.70
2008,06,27,09,03,16.70
2008,06,27,09,04,16.70
2008,06,27,09,05,16.80
2008,06,27,09,06,16.90
2008,06,27,09,07,17.00
2008,06,27,09,08,17.10
2008,06,27,09,09,17.30
2008,06,27,09,10,17.40
2008,06,27,09,11,17.50
2008,06,27,09,12,17.60
2008,06,27,09,13,17.70
2008,06,27,09,14,17.80
2008,06,27,09,15,17.90
2008,06,27,09,16,17.90
2008,06,27,09,17,17.90
2008,06,27,09,18,18.00
2008,06,27,09,19,18.10
2008,06,27,09,20,18.10
2008,06,27,09,21,18.10
2008,06,27,09,22,18.10
2008,06,27,09,23,18.10
2008,06,27,09,24,18.10
2008,06,27,09,25,18.10
2008,06,27,09,26,18.10
2008,06,27,09,27,18.20
2008,06,27,09,28,18.20
2008,06,27,09,29,18.20
2008,06,27,09,30,18.40
2008,06,27,09,31,18.40
2008,06,27,09,32,18.40
2008,06,27,09,33,18.40
2008,06,27,09,34,18.40
2008,06,27,09,35,18.30
2008,06,27,09,36,18.30
2008,06,27,09,37,18.30
2008,06,27,09,38,18.10
2008,06,27,09,39,18.00
2008,06,27,09,40,17.90
2008,06,27,09,41,17.90
2008,06,27,09,42,18.00
2008,06,27,09,43,18.10
2008,06,27,09,44,18.10
2008,06,27,09,45,18.20
2008,06,27,09,46,18.30
2008,06,27,09,47,18.30
2008,06,27,09,48,18.30
2008,06,27,09,49,18.30
2008,06,27,09,50,18.30
2008,06,27,09,51,18.40
2008,06,27,09,52,18.40
2008,06,27,09,53,18.50
2008,06,27,09,54,18.60
2008,06,27,09,55,18.70
2008,06,27,09,56,18.70
2008,06,27,09,57,18.70
2008,06,27,09,58,18.70
2008,06,27,09,59,18.70
2008,06,27,10,00,18.70
2008,06,27,10,01,18.80
2008,06,27,10,02,18.80
2008,06,27,10,03,18.80
2008,06,27,10,04,18.90
2008,06,27,10,05,18.90
2008,06,27,10,06,18.90
2008,06,27,10,07,18.90
2008,06,27,10,08,18.90
2008,06,27,10,09,18.90
2008,06,27,10,10,18.90
2008,06,27,10,11,18.90
2008,06,27,10,12,18.90
2008,06,27,10,13,18.90
2008,06,27,10,14,18.90
2008,06,27,10,15,18.90
2008,06,27,10,16,18.90
2008,06,27,10,17,18.90
2008,06,27,10,18,18.90
2008,06,27,10,19,18.90
2008,06,27,10,20,18.90
2008,06,27,10,21,18.90
2008,06,27,10,22,18.90
2008,06,27,10,23,18.90
2008,06,27,10,24,18.90
2008,06,27,10,25,18.90
2008,06,27,10,26,18.90
2008,06,27,10,27,18.90
2008,06,27,10,28,19.00
2008,06,27,10,29,19.10
2008,06,27,10,30,19.20
2008,06,27,10,31,19.40
2008,06,27,10,32,19.50
2008,06,27,10,33,19.50
2008,06,27,10,34,19.50
2008,06,27,10,35,19.40
2008,06,27,10,36,19.30
2008,06,27,10,37,19.10
2008,06,27,10,38,19.10
2008,06,27,10,39,19.10
2008,06,27,10,40,19.10
2008,06,27,10,41,19.10
2008,06,27,10,42,19.20
2008,06,27,10,43,19.20
2008,06,27,10,44,19.20
2008,06,27,10,45,19.20
2008,06,27,10,46,19.20
2008,06,27,10,47,19.10
2008,06,27,10,48,19.10
2008,06,27,10,49,19.20
2008,06,27,10,50,19.20
2008,06,27,10,51,19.30
2008,06,27,10,52,19.30
2008,06,27,10,53,19.40
2008,06,27,10,54,19.50
2008,06,27,10,55,19.50
2008,06,27,10,56,19.50
2008,06,27,10,57,19.50
2008,06,27,10,58,19.60
2008,06,27,10,59,19.80
2008,06,27,11,00,19.90
2008,06,27,11,01,20.10
2008,06,27,11,02,20.20
2008,06,27,11,03,20.20
2008,06,27,11,04,20.30
2008,06,27,11,05,20.40
2008,06,27,11,06,20.40
2008,06,27,11,07,20.30
2008,06,27,11,08,20.20
2008,06,27,11,09,20.20
2008,06,27,11,10,20.10
2008,06,27,11,11,20.10
2008,06,27,11,12,20.10
2008,06,27,11,13,20.10
2008,06,27,11,14,20.10
2008,06,27,11,15,20.20
2008,06,27,11,16,20.20
2008,06,27,11,17,20.10
2008,06,27,11,18,20.10
2008,06,27,11,19,20.10
2008,06,27,11,20,20.00
2008,06,27,11,21,20.10
2008,06,27,11,22,20.10
2008,06,27,11,23,20.20
2008,06,27,11,24,20.20
2008,06,27,11,25,20.20
2008,06,27,11,26,20.20
2008,06,27,11,27,20.20
2008,06,27,11,28,20.20
2008,06,27,11,29,20.20
2008,06,27,11,30,20.20
2008,06,27,11,31,20.20
2008,06,27,11,32,20.20
2008,06,27,11,33,20.10
2008,06,27,11,34,20.00
2008,06,27,11,35,19.90
2008,06,27,11,36,19.90
2008,06,27,11,37,19.90
2008,06,27,11,38,19.80
2008,06,27,11,39,19.70
2008,06,27,11,40,19.60
2008,06,27,11,41,19.50
2008,06,27,11,42,19.40
2008,06,27,11,43,19.40
2008,06,27,11,44,19.40
2008,06,27,11,45,19.50
2008,06,27,11,46,19.40
2008,06,27,11,47,19.40
2008,06,27,11,48,19.30
2008,06,27,11,49,19.20
2008,06,27,11,50,19.20
2008,06,27,11,51,19.10
2008,06,27,11,52,19.10
2008,06,27,11,53,19.10
2008,06,27,11,54,19.10
2008,06,27,11,55,19.20
2008,06,27,11,56,19.20
2008,06,27,11,57,19.20
2008,06,27,11,58,19.40
2008,06,27,11,59,19.50
2008,06,27,12,00,19.60
2008,06,27,12,01,19.60
2008,06,27,12,02,19.50
2008,06,27,12,03,19.50
2008,06,27,12,04,19.50
2008,06,27,12,05,19.40
2008,06,27,12,06,19.50
2008,06,27,12,07,19.60
2008,06,27,12,08,19.70
2008,06,27,12,09,19.80
2008,06,27,12,10,20.00
2008,06,27,12,11,20.10
2008,06,27,12,12,20.20
2008,06,27,12,13,20.20
2008,06,27,12,14,20.20
2008,06,27,12,15,20.20
2008,06,27,12,16,20.20
2008,06,27,12,17,20.20
2008,06,27,12,18,20.20
2008,06,27,12,19,20.20
2008,06,27,12,20,20.20
2008,06,27,12,21,20.20
2008,06,27,12,22,20.10
2008,06,27,12,23,19.90
2008,06,27,12,24,19.90
2008,06,27,12,25,19.90
2008,06,27,12,26,19.80
2008,06,27,12,27,19.80
2008,06,27,12,28,19.80
2008,06,27,12,29,19.80
2008,06,27,12,30,19.90
2008,06,27,12,31,19.90
2008,06,27,12,32,19.90
2008,06,27,12,33,19.90
2008,06,27,12,34,19.90
2008,06,27,12,35,20.00
2008,06,27,12,36,19.90
2008,06,27,12,37,20.10
2008,06,27,12,38,20.10
2008,06,27,12,39,20.20
2008,06,27,12,40,20.30
2008,06,27,12,41,20.30
2008,06,27,12,42,20.20
2008,06,27,12,43,20.20
2008,06,27,12,44,20.20
2008,06,27,12,45,20.10
2008,06,27,12,46,20.10
2008,06,27,12,47,20.20
2008,06,27,12,48,20.20
2008,06,27,12,49,20.20
2008,06,27,12,50,20.30
2008,06,27,12,51,20.40
2008,06,27,12,52,20.40
2008,06,27,12,53,20.50
2008,06,27,12,54,20.60
2008,06,27,12,55,20.60
2008,06,27,12,56,20.60
2008,06,27,12,57,20.50
2008,06,27,12,58,20.40
2008,06,27,12,59,20.30
2008,06,27,13,00,20.40
2008,06,27,13,01,20.50
2008,06,27,13,02,20.60
2008,06,27,13,03,20.70
2008,06,27,13,04,20.70
2008,06,27,13,05,20.70
2008,06,27,13,06,20.60
2008,06,27,13,07,20.60
2008,06,27,13,08,20.50
2008,06,27,13,09,20.50
2008,06,27,13,10,20.50
2008,06,27,13,11,20.50
2008,06,27,13,12,20.60
2008,06,27,13,13,20.60
2008,06,27,13,14,20.70
2008,06,27,13,15,20.70
2008,06,27,13,16,20.70
2008,06,27,13,17,20.70
2008,06,27,13,18,20.70
2008,06,27,13,19,20.70
2008,06,27,13,20,20.70
2008,06,27,13,21,20.80
2008,06,27,13,22,20.80
2008,06,27,13,23,21.00
2008,06,27,13,24,21.00
2008,06,27,13,25,21.00
2008,06,27,13,26,21.00
2008,06,27,13,27,20.90
2008,06,27,13,28,20.90
2008,06,27,13,29,20.90
2008,06,27,13,30,21.00
2008,06,27,13,31,21.10
2008,06,27,13,32,21.30
2008,06,27,13,33,21.30
2008,06,27,13,34,21.30
2008,06,27,13,35,21.30
2008,06,27,13,36,21.40
2008,06,27,13,37,21.40
2008,06,27,13,38,21.30
2008,06,27,13,39,21.30
2008,06,27,13,40,21.30
2008,06,27,13,41,21.30
2008,06,27,13,42,21.20
2008,06,27,13,43,21.00
2008,06,27,13,44,20.90
2008,06,27,13,45,20.90
2008,06,27,13,46,21.00
2008,06,27,13,47,21.00
2008,06,27,13,48,21.10
2008,06,27,13,49,21.00
2008,06,27,13,50,21.00
2008,06,27,13,51,21.00
2008,06,27,13,52,21.10
2008,06,27,13,53,21.20
2008,06,27,13,54,21.20
2008,06,27,13,55,21.30
2008,06,27,13,56,21.40
2008,06,27,13,57,21.40
2008,06,27,13,58,21.30
2008,06,27,13,59,21.30
2008,06,27,14,00,21.30
2008,06,27,14,01,21.30
2008,06,27,14,02,21.20
2008,06,27,14,03,21.20
2008,06,27,14,04,21.20
2008,06,27,14,05,21.20
2008,06,27,14,06,21.30
2008,06,27,14,07,21.20
2008,06,27,14,08,21.20
2008,06,27,14,09,21.30
2008,06,27,14,10,21.30
2008,06,27,14,11,21.30
2008,06,27,14,12,21.30
2008,06,27,14,13,21.40
2008,06,27,14,14,21.50
2008,06,27,14,15,21.60
2008,06,27,14,16,21.60
2008,06,27,14,17,21.60
2008,06,27,14,18,21.60
2008,06,27,14,19,21.60
2008,06,27,14,20,21.60
2008,06,27,14,21,21.70
2008,06,27,14,22,21.70
2008,06,27,14,23,21.70
2008,06,27,14,24,21.70
2008,06,27,14,25,21.70
2008,06,27,14,26,21.60
2008,06,27,14,27,21.60
2008,06,27,14,28,21.60
2008,06,27,14,29,21.60
2008,06,27,14,30,21.60
2008,06,27,14,31,21.60
2008,06,27,14,32,21.60
2008,06,27,14,33,21.60
2008,06,27,14,34,21.60
2008,06,27,14,35,21.70
2008,06,27,14,36,21.70
2008,06,27,14,37,21.60
2008,06,27,14,38,21.60
2008,06,27,14,39,21.60
2008,06,27,14,40,21.60
2008,06,27,14,41,21.50
2008,06,27,14,42,21.30
2008,06,27,14,43,21.30
2008,06,27,14,44,21.30
2008,06,27,14,45,21.40
2008,06,27,14,46,21.60
2008,06,27,14,47,21.60
2008,06,27,14,48,21.60
2008,06,27,14,49,21.50
2008,06,27,14,50,21.40
2008,06,27,14,51,21.40
2008,06,27,14,52,21.40
2008,06,27,14,53,21.60
2008,06,27,14,54,21.60
2008,06,27,14,55,21.70
2008,06,27,14,56,21.90
2008,06,27,14,57,22.00
2008,06,27,14,58,22.10
2008,06,27,14,59,22.20
2008,06,27,15,00,22.20
2008,06,27,15,01,22.10
2008,06,27,15,02,22.10
2008,06,27,15,03,22.10
2008,06,27,15,04,22.10
2008,06,27,15,05,22.00
2008,06,27,15,06,22.00
2008,06,27,15,07,22.00
2008,06,27,15,08,21.90
2008,06,27,15,09,21.90
2008,06,27,15,10,21.80
2008,06,27,15,11,21.80
2008,06,27,15,12,21.80
2008,06,27,15,13,21.90
2008,06,27,15,14,21.90
2008,06,27,15,15,21.90
2008,06,27,15,16,21.90
2008,06,27,15,17,21.90
2008,06,27,15,18,22.00
2008,06,27,15,19,22.00
2008,06,27,15,20,22.00
2008,06,27,15,21,22.00
2008,06,27,15,22,22.00
2008,06,27,15,23,22.00
2008,06,27,15,24,22.20
2008,06,27,15,25,22.20
2008,06,27,15,26,22.30
2008,06,27,15,27,22.30
2008,06,27,15,28,22.40
2008,06,27,15,29,22.40
2008,06,27,15,30,22.50
2008,06,27,15,31,22.60
2008,06,27,15,32,22.70
2008,06,27,15,33,22.80
2008,06,27,15,34,22.90
2008,06,27,15,35,22.90
2008,06,27,15,36,22.90
2008,06,27,15,37,22.80
2008,06,27,15,38,22.80
2008,06,27,15,39,22.80
2008,06,27,15,40,22.80
2008,06,27,15,41,22.80
2008,06,27,15,42,22.80
2008,06,27,15,43,22.80
2008,06,27,15,44,22.80
2008,06,27,15,45,22.80
2008,06,27,15,46,22.80
2008,06,27,15,47,22.80
2008,06,27,15,48,22.80
2008,06,27,15,49,22.80
2008,06,27,16,05,23.20
2008,06,27,16,06,23.30
2008,06,27,16,07,23.30
2008,06,27,16,08,23.30
2008,06,27,16,09,23.30
2008,06,27,16,10,23.30
2008,06,27,16,11,23.30
2008,06,27,16,12,23.30
2008,06,27,16,13,23.30
2008,06,27,16,14,23.30
2008,06,27,16,15,23.30
2008,06,27,16,16,23.30
2008,06,27,16,17,23.30
2008,06,27,16,18,23.00
2008,06,27,16,19,22.90
2008,06,27,16,20,22.90
2008,06,27,16,21,22.90
2008,06,27,16,22,22.90
2008,06,27,16,23,22.90
2008,06,27,16,24,22.90
2008,06,27,16,25,22.90
2008,06,27,16,26,22.90
2008,06,27,16,27,22.90
2008,06,27,16,28,22.90
2008,06,27,16,29,22.90
2008,06,27,16,30,22.90
2008,06,27,16,31,22.90
2008,06,27,16,32,23.10
2008,06,27,16,33,23.10
2008,06,27,16,34,23.20
2008,06,27,16,35,23.30
2008,06,27,16,36,23.30
2008,06,27,16,37,23.30
2008,06,27,16,38,23.40
2008,06,27,16,39,23.40
2008,06,27,16,40,23.40
2008,06,27,16,41,23.60
2008,06,27,16,42,23.60
2008,06,27,16,43,23.50
2008,06,27,16,44,23.40
2008,06,27,16,45,23.30
2008,06,27,16,46,23.40
2008,06,27,16,47,23.40
2008,06,27,16,48,23.60
2008,06,27,16,49,23.60
2008,06,27,16,50,23.70
2008,06,27,16,51,23.60
2008,06,27,16,52,23.60
2008,06,27,16,53,23.50
2008,06,27,16,54,23.30
2008,06,27,16,55,23.30
2008,06,27,16,56,23.30
2008,06,27,16,57,23.30
2008,06,27,16,58,23.30
2008,06,27,16,59,23.30
2008,06,27,17,00,23.30
2008,06,27,17,01,23.30
2008,06,27,17,02,23.30
2008,06,27,17,03,23.30
2008,06,27,17,04,23.20
2008,06,27,17,05,23.20
2008,06,27,17,06,23.20
2008,06,27,17,07,23.30
2008,06,27,17,08,23.30
2008,06,27,17,09,23.30
2008,06,27,17,10,23.40
2008,06,27,17,11,23.60
2008,06,27,17,12,23.70
2008,06,27,17,13,23.70
2008,06,27,17,14,23.70
2008,06,27,17,15,23.70
2008,06,27,17,16,23.70
2008,06,27,17,17,23.70
2008,06,27,17,18,23.70
2008,06,27,17,19,23.70
2008,06,27,17,20,23.60
2008,06,27,17,21,23.60
2008,06,27,17,22,23.60
2008,06,27,17,23,23.50
2008,06,27,17,24,23.50
2008,06,27,17,25,23.60
2008,06,27,17,26,23.70
2008,06,27,17,27,23.70
2008,06,27,17,28,23.70
2008,06,27,17,29,23.70
2008,06,27,17,30,23.70
2008,06,27,17,31,23.70
2008,06,27,17,32,23.70
2008,06,27,17,33,23.60
2008,06,27,17,34,23.60
2008,06,27,17,35,23.50
2008,06,27,17,36,23.50
2008,06,27,17,37,23.60
2008,06,27,17,38,23.70
2008,06,27,17,39,23.70